CARTOSAT-2A

Last updated on Mon Jun 22 2026 00:02:51 GMT+0000 (Coordinated Universal Time)

1 32783U 08021A 26172.51099611 .00001267 00000+0 17696-3 0 9991 2 32783 97.7628 221.0728 0013330 96.4021 263.8709 14.79246926979446
UTC large
Height (km)
Speed (km/s)
/
Latitude / Longitude
Inclination (degrees)
Orbital Period (minutes)
Azimuth
Elevation
Range (km)
Doppler Factor

Next 0 passes for location: London (51.5072 / 0.1276)

No passes found over London.
CARTOSAT-2A